CDT,Max TemperatureF,Mean TemperatureF,Min TemperatureF,Max Dew PointF,MeanDew PointF,Min DewpointF,Max Humidity, Mean Humidity, Min Humidity, Max Sea Level PressureIn, Mean Sea Level PressureIn, Min Sea Level PressureIn, Max VisibilityMiles, Mean VisibilityMiles, Min VisibilityMiles, Max Wind SpeedMPH, Mean Wind SpeedMPH, Max Gust SpeedMPH,PrecipitationIn, CloudCover, Events, WindDirDegrees
2013-7-1,84,74,64,66,64,63,100,73,48,29.97,29.90,29.85,10,10,7,13,2,16,0.00,1,,306
2013-7-2,86,74,62,68,64,61,100,75,45,30.05,30.01,29.95,10,9,5,9,2,,0.00,1,,6
2013-7-3,86,74,62,72,66,63,100,81,48,30.08,30.04,29.99,10,8,4,8,2,,0.00,1,Rain,36
2013-7-4,86,76,66,72,69,66,100,84,55,30.03,30.00,29.96,10,6,0,12,2,,0.00,2,Fog,4
2013-7-5,80,74,68,73,71,68,100,90,74,30.06,30.03,30.00,10,8,0,10,1,,0.10,2,Rain-Thunderstorm,96
2013-7-6,86,77,68,73,71,68,100,86,62,30.07,30.03,29.98,10,8,0,8,2,,0.00,3,Fog,105
2013-7-7,89,80,71,75,73,72,100,88,58,30.14,30.07,30.03,10,8,0,8,2,16,0.48,5,Rain-Thunderstorm,140
2013-7-8,89,79,69,77,72,70,100,83,55,30.20,30.15,30.10,10,8,0,8,1,,0.00,2,Fog,190
2013-7-9,89,80,71,75,74,72,100,87,59,30.22,30.16,30.10,10,9,1,9,2,,0.62,1,Rain-Thunderstorm,229
2013-7-10,91,82,73,75,74,72,100,80,55,30.14,30.08,29.99,10,10,5,10,4,,0.00,1,Thunderstorm,243
2013-7-11,87,79,71,77,73,70,100,92,70,30.06,30.00,29.94,10,9,0,12,4,,0.87,1,Rain-Thunderstorm,243
2013-7-12,89,79,69,75,71,66,100,78,46,29.99,29.96,29.91,10,8,1,10,2,,0.00,3,,343
2013-7-13,86,76,66,72,68,64,100,76,55,29.99,29.97,29.94,10,9,5,8,2,,0.00,0,,10
2013-7-14,87,76,66,73,70,66,100,85,58,30.07,30.01,29.95,10,8,2,9,1,,0.00,2,Thunderstorm,116
2013-7-15,87,76,66,73,71,66,100,84,58,30.17,30.11,30.04,10,9,2,10,1,17,0.00,0,,90
2013-7-16,86,78,69,75,72,70,100,89,66,30.24,30.19,30.15,10,7,0,8,2,,0.23,3,Fog-Thunderstorm,80
2013-7-17,89,79,69,77,73,70,100,84,55,30.27,30.22,30.17,10,8,1,8,1,,0.03,1,Thunderstorm,69
2013-7-18,87,78,69,73,71,70,100,88,58,30.21,30.14,30.06,10,8,3,7,1,,0.00,0,Rain-Thunderstorm,325
2013-7-19,91,78,66,75,71,66,100,83,49,30.12,30.05,29.99,10,8,3,10,1,,0.00,1,Thunderstorm,84
2013-7-20,89,79,69,75,71,68,100,87,58,30.03,30.00,29.95,10,7,1,13,1,21,0.01,1,Rain-Thunderstorm,200
2013-7-21,87,78,69,75,72,70,100,88,58,30.07,30.03,30.00,10,8,1,14,3,26,0.03,2,Rain-Thunderstorm,192
2013-7-22,91,82,73,79,73,70,100,87,55,30.08,30.04,30.01,10,9,2,15,6,25,0.04,2,Thunderstorm,211
2013-7-23,91,83,75,75,74,72,100,77,52,30.07,30.01,29.93,10,7,3,15,8,20,0.00,3,,230
2013-7-24,87,80,73,75,74,70,100,84,58,30.00,29.96,29.92,9,6,1,13,6,17,0.26,3,Rain-Thunderstorm,239
2013-7-25,89,79,69,73,71,66,100,79,49,30.08,30.03,29.95,10,8,2,8,3,,0.00,3,,321
2013-7-26,89,76,64,73,69,63,100,77,49,30.10,30.05,29.99,10,10,5,9,1,,0.00,1,,289
2013-7-27,82,78,73,75,74,72,100,91,74,29.99,29.94,29.88,10,8,1,13,4,17,0.59,4,Rain-Thunderstorm,248
2013-7-28,87,79,71,75,72,72,100,86,58,30.05,30.00,29.93,10,8,2,9,2,,0.00,4,,353
2013-7-29,91,80,69,75,73,70,100,79,52,30.15,30.10,30.04,10,7,2,6,0,,0.00,1,,47
2013-7-30,93,82,71,77,74,72,100,81,49,30.18,30.13,30.09,10,6,1,7,1,,0.00,1,,279
2013-7-31,93,84,75,75,72,66,94,72,41,30.14,30.07,29.99,10,8,5,9,3,,0.00,0,,261